{"data":{"norad_id":41849,"epoch":"2026-05-24T15:52:48.709632Z","epoch_age_seconds":94323,"freshness":"FRESH","line1":"1 41849U 16067B   26144.66167488  .00041931  00000+0  69025-3 0  9991","line2":"2 41849  97.9926  31.5583 0007064  89.5706 270.6354 15.52208847524041","mean_motion":15.52208847,"eccentricity":0.0007064,"inclination_deg":97.9926,"raan_deg":31.5583,"arg_perigee_deg":89.5706,"mean_anomaly_deg":270.6354,"bstar":0.00069025,"rev_number":52404,"period_min":92.771021295435,"perigee_km":405.48298566298,"apogee_km":415.07365883025,"semimajor_km":6788.4153222466,"source":"CELESTRAK","updated_at":"2026-05-25T13:38:25.528214Z"}}